Location: Eyeline Observatory
(43.2182°N, 78.8632°W)
Time: 09:42:00
(UTC-04:00)

Tiangong 2 - Pass Details

Date: 11 October 2017
Orbit: 388 x 391 km, 42.8° (Epoch: 23 October)

Event Time Altitude Azimuth Distance (km) Brightness Sun altitude
Exits shadow 06:11:05 27° 237° (WSW) 795 2.2 -14.2°
Maximum altitude 06:12:37 59° 166° (SSE) 454 1.4 -13.9°
Drops below altitude 10° 06:15:47 10° 86° (E) 1,423 5.4 -13.3°
Sets 06:17:52 0° 82° (E) 2,280 7.0 -13.0°
